Simultaneous Nadir Overpasses (SNOs) Predictions

Prediction of SNOs between AQUA and NPP Satellite Orbit:

Table of predicted SNOs for the next 14.0 days since TLE Epoch: 4/9/2022
Index Date (AQUA) Time (AQUA) Lat,Lon (AQUA) SZA (AQUA ) Date (NPP) Time (NPP) Lat,Lon (NPP) SZA (NPP ) Distance(km) Time Diff (sec)
1 04/09/2022 20:06:45 77.07, 121.52 88.26 04/09/2022 20:06:01 77.06, 121.45 88.31 1.84 44
2 04/09/2022 20:55:55 -77.85, -67.62 92.73 04/09/2022 20:56:28 -77.84, -67.66 92.75 1.01 33
3 04/12/2022 12:22:47 77.62,-120.31 86.58 04/12/2022 12:22:42 77.62,-120.27 86.57 0.79 5
4 04/12/2022 13:12:00 -78.25, 50.20 94.24 04/12/2022 13:13:12 -78.26, 50.27 94.32 1.74 72
5 04/15/2022 03:49:39 -77.40,-172.91 94.13 04/15/2022 03:48:56 -77.41,-172.80 94.12 2.67 43
6 04/15/2022 04:38:51 78.00, -2.69 85.12 04/15/2022 04:39:26 78.00, -2.65 85.08 0.85 35
7 04/17/2022 19:20:48 63.25, 110.79 99.77 04/17/2022 19:19:35 63.52, 109.26 100.09 82.16 73
8 04/17/2022 20:05:47 -77.62, -56.03 95.36 04/17/2022 20:05:45 -77.62, -56.05 95.36 0.40 2
9 04/17/2022 20:53:36 81.09, 137.82 79.22 04/17/2022 20:54:49 80.83, 138.68 79.04 32.94 73
10 04/20/2022 11:32:38 77.33,-108.90 84.07 04/20/2022 11:32:00 77.33,-108.91 84.11 0.39 38



Historial Predications of SNOs between AQUA and NPP
